Date String (YYYY-MM-DD hh:mm:ss) UTC,Instrument flags,Ambient pressure (hPa),Sample flow (lpm),Bypass flow (lpm),Sample temperature (°C),Ambient temperature (°C),ASC tube jacket temperature (°C),LED temperature (°C),Box temperature (°C),Sample RH (%),Span deviation,Mass concentration (μg/m³),Mass concentration (μg/m³),Mass concentration (μg/m³)
DateTimeUTC,F1_M11,P_M11,Q1_M11,Q2_M11,T1_M11,T2_M11,T3_M11,T4_M11,T5_M11,U1_M11,ZSPAN_M11,X0_M11,X2_M11,X1_M11
2022-09-03 04:00:00,,0834.3,5.01,0.00,29.5,28.1,00.0,38.1,31.4,19.9,0000.0,0008.67,0003.41,0002.86
2022-09-03 04:01:00,,0834.3,5.01,0.00,29.5,28.3,00.0,38.2,31.4,19.9,0000.0,0008.71,0003.37,0002.80
2022-09-03 04:02:00,,0834.3,4.98,0.00,29.5,28.5,00.0,38.2,31.5,19.9,0000.0,0008.70,0003.34,0002.73
2022-09-03 04:03:00,,0834.3,5.01,0.00,29.6,28.6,00.0,38.2,31.5,19.9,0000.0,0008.36,0003.32,0002.69
2022-09-03 04:04:00,,0834.4,4.99,0.00,29.6,28.7,00.0,38.2,31.6,19.6,0000.0,0008.02,0003.28,0002.66
2022-09-03 04:05:00,,0834.4,5.01,0.00,29.7,28.7,00.0,38.3,31.6,19.6,0000.0,0007.84,0003.26,0002.65
2022-09-03 04:06:00,,0834.4,4.98,0.00,29.7,27.9,00.0,38.3,31.6,19.5,0000.0,0007.49,0003.25,0002.64
2022-09-03 04:07:00,,0834.5,5.02,0.00,29.6,26.5,00.0,38.2,31.4,19.7,0000.0,0007.85,0003.24,0002.62
2022-09-03 04:08:00,,0834.5,5.00,0.00,29.6,26.2,00.0,38.2,31.3,19.8,0000.0,0008.00,0003.24,0002.62
2022-09-03 04:09:00,,0834.5,5.00,0.00,29.5,26.4,00.0,38.2,31.1,19.8,0000.0,0008.15,0003.23,0002.62
2022-09-03 04:10:00,,0834.6,5.01,0.00,29.4,26.8,00.0,38.1,31.1,20.0,0000.0,0007.88,0003.25,0002.62
2022-09-03 04:11:00,,0834.6,4.99,0.00,29.4,27.1,00.0,38.1,31.1,20.1,0000.0,0007.36,0003.28,0002.63
2022-09-03 04:12:00,,0834.6,5.00,0.00,29.4,27.5,00.0,38.1,31.2,20.1,0000.0,0008.05,0003.32,0002.65
2022-09-03 04:13:00,,0834.7,5.00,0.00,29.4,27.7,00.0,38.1,31.3,20.0,0000.0,0008.09,0003.36,0002.68
2022-09-03 04:14:00,,0834.7,5.01,0.00,29.4,28.0,00.0,38.1,31.3,20.0,0000.0,0007.82,0003.34,0002.69
2022-09-03 04:15:00,,0834.7,4.99,0.00,29.5,28.1,00.0,38.1,31.4,19.9,0000.0,0008.16,0003.37,0002.73
2022-09-03 04:16:00,,0834.7,5.02,0.00,29.5,28.3,00.0,38.2,31.4,19.9,0000.0,0008.41,0003.40,0002.78
2022-09-03 04:17:00,,0834.7,4.99,0.00,29.5,28.4,00.0,38.2,31.5,19.8,0000.0,0008.82,0003.49,0002.88
2022-09-03 04:18:00,,0834.7,5.02,0.00,29.6,28.5,00.0,38.2,31.5,19.7,0000.0,0008.61,0003.58,0003.02
2022-09-03 04:19:00,,0834.8,4.99,0.00,29.6,28.7,00.0,38.2,31.6,19.7,0000.0,0008.50,0003.68,0003.14
2022-09-03 04:20:00,,0834.8,5.01,0.00,29.7,28.8,00.0,38.3,31.6,19.7,0000.0,0008.94,0003.76,0003.21
2022-09-03 04:21:00,,0834.9,5.02,0.00,29.7,28.4,00.0,38.3,31.6,19.8,0000.0,0009.11,0003.78,0003.25
2022-09-03 04:22:00,,0835.0,4.98,0.00,29.7,27.0,00.0,38.3,31.4,19.9,0000.0,0009.14,0003.80,0003.26
2022-09-03 04:23:00,,0834.9,5.00,0.00,29.6,26.2,00.0,38.3,31.3,20.3,0000.0,0008.71,0003.83,0003.27
2022-09-03 04:24:00,,0835.0,5.01,0.00,29.5,26.3,00.0,38.2,31.3,20.5,0000.0,0010.07,0003.84,0003.28
2022-09-03 04:25:00,,0835.0,4.99,0.00,29.5,26.6,00.0,38.2,31.1,20.6,0000.0,0011.08,0003.87,0003.30
2022-09-03 04:26:00,,0835.0,5.01,0.00,29.4,27.0,00.0,38.1,31.2,20.6,0000.0,0011.42,0003.90,0003.31
2022-09-03 04:27:00,,0835.0,5.00,0.00,29.4,27.3,00.0,38.1,31.2,20.6,0000.0,0011.39,0003.94,0003.29
2022-09-03 04:28:00,,0835.0,5.00,0.00,29.4,27.6,00.0,38.1,31.2,20.8,0000.0,0011.04,0003.88,0003.25
2022-09-03 04:29:00,,0835.1,4.98,0.00,29.4,27.9,00.0,38.1,31.3,20.9,0000.0,0011.01,0003.84,0003.20
2022-09-03 04:30:00,,0835.1,5.00,0.00,29.5,28.1,00.0,38.2,31.3,21.2,0000.0,0011.45,0003.81,0003.13
2022-09-03 04:31:00,,0835.1,5.01,0.00,29.5,28.3,00.0,38.2,31.4,21.3,0000.0,0011.43,0003.76,0003.07
2022-09-03 04:32:00,,0835.2,5.00,0.00,29.5,28.4,00.0,38.2,31.4,21.3,0000.0,0011.41,0003.76,0003.02
2022-09-03 04:33:00,,0835.1,5.00,0.00,29.5,28.5,00.0,38.2,31.5,21.3,0000.0,0011.79,0003.79,0003.03
2022-09-03 04:34:00,,0835.1,5.00,0.00,29.6,28.6,00.0,38.2,31.5,21.4,0000.0,0011.54,0003.79,0003.04
2022-09-03 04:35:00,,0835.1,4.99,0.00,29.6,28.7,00.0,38.3,31.6,21.4,0000.0,0010.42,0003.78,0003.08
2022-09-03 04:36:00,,0835.1,5.00,0.00,29.7,28.8,00.0,38.3,31.6,21.4,0000.0,0010.00,0003.81,0003.11
2022-09-03 04:37:00,,0835.1,4.99,0.00,29.7,28.9,00.0,38.3,31.7,21.4,0000.0,0010.12,0003.84,0003.13
2022-09-03 04:38:00,,0835.2,4.99,0.00,29.7,29.0,00.0,38.4,31.7,21.4,0000.0,0010.16,0003.84,0003.15
2022-09-03 04:39:00,,0835.1,5.00,0.00,29.8,28.7,00.0,38.4,31.7,21.3,0000.0,0010.64,0003.84,0003.17
2022-09-03 04:40:00,,0835.1,5.00,0.00,29.8,27.5,00.0,38.4,31.6,21.4,0000.0,0011.59,0003.85,0003.18
2022-09-03 04:41:00,,0835.2,5.01,0.00,29.7,27.0,00.0,38.4,31.6,21.4,0000.0,0011.55,0003.84,0003.20
2022-09-03 04:42:00,,0835.2,4.98,0.00,29.7,27.1,00.0,38.3,31.5,21.4,0000.0,0011.04,0003.81,0003.20
2022-09-03 04:43:00,,0835.2,5.01,0.00,29.6,27.4,00.0,38.3,31.4,21.5,0000.0,0010.67,0003.79,0003.21
2022-09-03 04:44:00,,0835.2,5.00,0.00,29.6,27.7,00.0,38.3,31.4,21.5,0000.0,0010.62,0003.77,0003.21
2022-09-03 04:45:00,,0835.1,5.01,0.00,29.6,28.0,00.0,38.3,31.5,21.5,0000.0,0010.37,0003.73,0003.21
2022-09-03 04:46:00,,0835.2,5.01,0.00,29.6,28.2,00.0,38.3,31.5,21.6,0000.0,0010.38,0003.77,0003.21
2022-09-03 04:47:00,,0835.2,5.01,0.00,29.7,28.4,00.0,38.4,31.5,21.6,0000.0,0009.93,0003.74,0003.20
2022-09-03 04:48:00,,0835.2,5.01,0.00,29.7,28.5,00.0,38.4,31.6,21.6,0000.0,0009.28,0003.71,0003.18
2022-09-03 04:49:00,,0835.2,4.98,0.00,29.7,28.6,00.0,38.4,31.6,21.5,0000.0,0009.14,0003.72,0003.17
2022-09-03 04:50:00,,0835.2,5.01,0.00,29.7,28.7,00.0,38.4,31.7,21.5,0000.0,0009.10,0003.76,0003.17
2022-09-03 04:51:00,,0835.2,4.99,0.00,29.8,28.8,00.0,38.4,31.7,21.5,0000.0,0008.67,0003.78,0003.16
2022-09-03 04:52:00,,0835.2,5.01,0.00,29.8,28.8,00.0,38.5,31.7,21.7,0000.0,0008.13,0003.82,0003.16
2022-09-03 04:53:00,,0835.3,4.99,0.00,29.8,28.9,00.0,38.5,31.7,21.6,0000.0,0008.45,0003.87,0003.17
2022-09-03 04:54:00,,0835.4,5.00,0.00,29.9,28.9,00.0,38.5,31.7,21.5,0000.0,0008.94,0003.96,0003.18
2022-09-03 04:55:00,,0835.3,5.01,0.00,29.9,28.7,00.0,38.5,31.8,21.6,0000.0,0009.35,0004.01,0003.21
2022-09-03 04:56:00,,0835.3,4.98,0.00,29.9,27.4,00.0,38.5,31.6,21.8,0000.0,0010.31,0004.11,0003.25
2022-09-03 04:57:00,,0835.4,5.00,0.00,29.8,27.0,00.0,38.5,31.6,22.0,0000.0,0010.47,0004.15,0003.31
2022-09-03 04:58:00,,0835.3,5.00,0.00,29.8,27.1,00.0,38.5,31.5,22.1,0000.0,0010.95,0004.28,0003.37
2022-09-03 04:59:00,,0835.4,5.01,0.00,29.7,27.4,00.0,38.5,31.4,22.4,0000.0,0011.25,0004.40,0003.45
